W1EZY Weather Reports


time (UTC)temp
C
wind
direction
speed
KPH
gust
KPH
rain 1hr
cm
rain 24hr
cm
rain mn
cm
humidity
%
barometer
mb
20260507081026 12 302 0.0 1.6 0.28 0.58 0.28 96 1005.8
20260507075530 12 228 0.0 0.0 0.03 0.33 0.03 96 1005.1
20260507074030 12 228 0.0 0.0 0.00 0.30 0.00 96 1004.7
20260507072532 12 209 0.0 0.0 0.00 0.30 0.00 96 1004.6
20260507071052 12 209 0.0 0.0 0.00 0.30 0.00 96 1004.7
20260507065515 12 219 0.0 0.0 0.00 0.30 0.00 96 1005.0
20260507064036 12 221 0.0 0.0 0.00 0.30 0.00 95 1005.0
20260507062517 12 220 0.0 0.0 0.00 0.30 0.00 95 1004.9
20260507061038 12 242 0.0 0.0 0.00 0.30 0.00 95 1005.2
20260507055515 12 198 0.0 0.0 0.00 0.30 0.00 95 1005.4
20260507054039 12 232 0.0 0.0 0.00 0.30 0.00 95 1005.7
20260507052516 12 219 0.0 0.0 0.00 0.30 0.00 95 1005.8
20260507051021 12 222 0.0 0.0 0.00 0.30 0.00 95 1006.0
20260507045519 12 209 0.0 0.0 0.00 0.30 0.00 95 1006.0
20260507044023 12 198 0.0 0.0 0.00 0.30 0.00 95 1005.9
20260507042542 12 190 0.0 0.0 0.00 0.30 0.00 95 1006.0
20260507041021 12 194 0.0 0.0 0.00 0.30 0.00 95 1006.1
20260507035543 12 215 0.0 1.6 0.00 0.30 0.30 95 1006.2
20260507034023 12 200 0.0 0.0 0.00 0.30 0.30 95 1006.3
20260507032526 13 207 1.6 9.7 0.00 0.30 0.30 95 1006.5
20260507031026 13 218 0.0 9.7 0.00 0.30 0.30 95 1006.3
20260507025529 13 200 0.0 4.8 0.00 0.30 0.30 95 1006.3
20260507024049 13 219 0.0 4.8 0.00 0.30 0.30 95 1006.2
20260507022531 13 201 0.0 1.6 0.00 0.30 0.30 95 1006.1
20260507021032 13 204 1.6 14.5 0.00 0.30 0.30 95 1006.5
20260507015514 13 219 0.0 11.3 0.00 0.30 0.30 95 1006.7
20260507014016 13 197 0.0 9.7 0.00 0.30 0.30 95 1006.7
20260507012516 13 234 1.6 8.0 0.03 0.30 0.30 94 1006.9
20260507011019 13 251 1.6 16.1 0.03 0.30 0.30 95 1007.1
20260507005519 13 222 0.0 17.7 0.03 0.30 0.30 94 1007.1
20260507004023 13 117 0.0 9.7 0.05 0.30 0.30 94 1006.9
20260507002522 13 238 0.0 14.5 0.08 0.28 0.28 94 1006.9
20260507001026 13 196 1.6 11.3 0.10 0.28 0.28 94 1007.1
20260506235525 14 244 6.4 22.5 0.13 0.28 0.28 94 1007.0
20260506234030 14 209 1.6 14.5 0.18 0.25 0.25 94 1006.9
20260506232529 13 211 1.6 11.3 0.15 0.20 0.20 94 1006.8
20260506231032 13 188 1.6 12.9 0.15 0.18 0.18 94 1006.7
20260506225532 14 252 3.2 19.3 0.15 0.15 0.15 93 1006.6
20260506224017 13 196 4.8 19.3 0.08 0.08 0.08 93 1006.9
20260506222516 13 244 3.2 19.3 0.05 0.05 0.05 92 1007.1
20260506221020 14 207 3.2 24.1 0.03 0.03 0.03 91 1007.5
20260506215519 14 223 1.6 29.0 0.00 0.00 0.00 89 1007.6
20260506214020 15 219 1.6 9.7 0.00 0.00 0.00 88 1007.5
20260506212521 15 180 1.6 17.7 0.00 0.00 0.00 87 1007.6
20260506211021 15 162 0.0 12.9 0.00 0.00 0.00 87 1007.7
20260506205525 15 178 1.6 20.9 0.00 0.00 0.00 85 1007.8
20260506204027 15 221 1.6 16.1 0.00 0.00 0.00 86 1007.9
20260506202529 15 232 4.8 24.1 0.00 0.00 0.00 85 1007.9
20260506201030 15 199 0.0 8.0 0.00 0.00 0.00 85 1008.2
20260506195514 15 254 3.2 38.6 0.00 0.00 0.00 83 1008.4
20260506194054 16 193 8.0 35.4 0.00 0.00 0.00 80 1008.5
20260506192515 16 213 6.4 30.6 0.00 0.00 0.00 79 1008.6
20260506191015 16 215 6.4 29.0 0.00 0.00 0.00 79 1008.7
20260506185519 16 179 3.2 24.1 0.00 0.00 0.00 78 1008.7
20260506184019 17 218 8.0 37.0 0.00 0.00 0.00 77 1008.7
20260506182518 17 165 4.8 24.1 0.00 0.00 0.00 78 1009.1
20260506181022 17 238 6.4 35.4 0.00 0.00 0.00 78 1009.3
20260506175521 17 215 6.4 27.4 0.00 0.00 0.00 77 1009.6
20260506174026 17 208 8.0 45.1 0.00 0.00 0.00 76 1010.0
20260506172525 17 251 3.2 30.6 0.00 0.00 0.00 77 1009.7
20260506171030 17 269 3.2 30.6 0.00 0.00 0.00 77 1009.8
20260506165528 17 207 6.4 32.2 0.00 0.00 0.00 79 1010.2
20260506164031 16 236 1.6 40.2 0.00 0.00 0.00 80 1010.6
20260506162530 16 261 3.2 22.5 0.00 0.00 0.00 79 1010.5
20260506161014 17 198 9.7 32.2 0.00 0.00 0.00 76 1010.9
20260506155514 18 176 14.5 40.2 0.00 0.00 0.00 76 1010.9
20260506154018 17 228 1.6 35.4 0.00 0.00 0.00 78 1011.0
20260506152519 17 236 6.4 25.7 0.00 0.00 0.00 77 1011.1
20260506151024 17 249 14.5 59.5 0.00 0.00 0.00 77 1011.2
20260506145522 17 171 8.0 29.0 0.00 0.00 0.00 77 1011.0
20260506144023 17 232 6.4 32.2 0.00 0.00 0.00 79 1011.3
20260506142525 17 162 11.3 33.8 0.00 0.00 0.00 79 1011.1
20260506141025 17 219 6.4 17.7 0.00 0.00 0.00 78 1010.8
20260506135529 17 230 8.0 30.6 0.00 0.00 0.00 78 1011.0
20260506134030 17 233 4.8 29.0 0.00 0.00 0.00 79 1011.4
20260506132553 17 196 6.4 30.6 0.00 0.00 0.00 79 1011.4
20260506131033 16 234 3.2 22.5 0.00 0.00 0.00 79 1011.2
20260506125516 16 238 6.4 30.6 0.00 0.00 0.00 81 1011.2
20260506124016 16 219 4.8 27.4 0.00 0.00 0.00 81 1011.2
20260506122520 16 184 0.0 25.7 0.00 0.00 0.00 83 1011.4
20260506121019 16 184 0.0 19.3 0.00 0.00 0.00 83 1011.3
20260506115522 15 226 1.6 19.3 0.00 0.00 0.00 85 1011.7
20260506114023 15 200 3.2 19.3 0.00 0.00 0.00 86 1011.7
20260506112523 14 184 0.0 8.0 0.00 0.00 0.00 87 1011.7
20260506111027 14 215 1.6 14.5 0.00 0.00 0.00 87 1011.7
20260506105527 14 186 4.8 16.1 0.00 0.00 0.00 88 1011.6
20260506104030 13 178 0.0 14.5 0.00 0.00 0.00 89 1011.8
20260506102529 13 232 0.0 20.9 0.00 0.00 0.00 89 1011.6
20260506101033 13 163 0.0 24.1 0.00 0.00 0.00 89 1011.5
20260506095532 13 175 1.6 16.1 0.00 0.00 0.00 89 1011.4
20260506094017 13 202 0.0 16.1 0.00 0.00 0.00 89 1011.6
20260506092516 13 188 0.0 20.9 0.00 0.00 0.00 89 1011.5
20260506091019 14 204 1.6 22.5 0.00 0.00 0.00 89 1011.6
20260506085518 14 222 0.0 19.3 0.00 0.00 0.00 89 1011.8
20260506084023 14 204 4.8 24.1 0.00 0.00 0.00 89 1011.7
20260506082522 14 209 0.0 12.9 0.00 0.00 0.00 89 1011.8